COSMOS 2476 (744)

Last updated on Aug. 13, 2020, 5:30 a.m. UTC

1 37867U 11064A   20225.60582132 -.00000007  00000-0  00000-0 0  9999
2 37867  64.5324 145.2595 0020534 240.8452 347.8670  2.13101909 68327
UTC
Height (km)
Latitude
Longitude
Inclination
Orbital Period
UTC large
Height (km)
Speed (km/s)
/
Latitude / Longitude
Inclination (degrees)
Orbital Period (minutes)
Azimuth
Elevation
Range (km)
Doppler Factor
iOS Compass Heading
iOS Angle

Next 30 passes for location: Hong Kong

Rise time Rise Azimuth (degrees) Set time Set Azimuth (degrees) Duration Max altitude (degrees)

No matching passes for this satellites